Showing default

HYSIS, 43719

Orbit data source: Space-Track

HYSIS, 43719 is a payload satellite owned by ISRO (IN) in SSO that was launched on Thu, 29 Nov 2018 UTC via a PSLV launch vehicle from the Sirharikota (SRI). Payload-class satellites include a variety of spacecraft equipped with specific instruments for various scientific and technological missions. These include communications satellites like Starlink; space stations such as the ISS; scientific satellites like the Hubble; Earth observation satellites from companies like Planet Labs, Umbra, and HawkEye 360; GPS; miniature CubeSats for education and research; and military/defense satellites.

Loading next visibility...
Identifier
43719, 2018-096A
Orbit
SSO
Country
Flag of ININ / IND
Related business
Manufacturer
ISRO
Mission
Operational Civil Imaging
Bus & Motor
SSB-2, AOCS
Mass
380 kg wet, ~350 kg dry
Launch date (UTC)
2018-11-29 (7 years ago)
Launch vehicle
PSLV
Launch site
Sirharikota (SRI)
Object type
Payload
Rocket body
Debris
Shape & HBR
Box + 2 Pan, 3.0 m
Radar Cross Section
4.485 m², Large (>1 m²)

Expand to show TLE details & history
Last TLE update: 5 hours ago

TLE from 5 hours ago
0 HYSIS
1 43719U 18096A   25351.31304053  .00000749  00000-0  10936-3 0  9995
2 43719  98.0098  54.2686 0001182  52.1071 308.0246 14.78657847380549
Epoch: 2025-12-17T07:30Z
TLE epoch observation values (Epoch: 2025-12-17T07:30:46.701Z)
Latitude
-0.0001°
Longitude
-144.61067°
Altitude
636.07 km
Speed
7.54 km/s
True Right ascension
03h 37m 04s
True Declination
0° 00' 00"
Sunlit
Object was in full shadow at epoch
Visualization orbit readout
Latitude
Unknown
Longitude
Unknown
Altitude
Unknown
Speed
Unknown
Apparent Right ascension
Unknown
Apparent Declination
Unknown
Sunlit
N/A
Visualization observer readout
Local Sidereal Time
11:14:37
Azimuth
Unknown
Elevation
Unknown
Doppler factor
Unknown
Orbital elements
Apogee altitude
631.44 km
Perigee altitude
629.783 km
Semi-major axis
7,008.748 km
Eccentricity
0.00012
Inclination
98.0098°
RAAN
54.2686°
Arg. of periapsis
52.1071°
True anomaly
308.01393°
Mean anomaly
308.0246°
Eccentric anomaly
308.01926°
Mean motion
3.69898 °/min
Orbital period
97.32 mins
BSTAR
0.00010936
Loading maneuver chart data...
Computing Atmospheric mass density...

Documentation

Showing up to 5 results
|